Regional Weather Roundup
Issued by NWS Wakefield, VA

Home | Current Version | Previous Version | Text Only | Print | Product List | Glossary On
Versions: 1 2 3 4 5 6 7 8 9 10 11 12 13 14 15 16 17 18 19 20 21 22 23 24 25 26 27 28 29 30 31 32 33 34 35 36 37 38 39 40 41 42 43 44 45 46 47 48 49 50
000
ASUS41 KAKQ 060515
RWRAKQ

REGIONAL WEATHER ROUNDUP
NATIONAL WEATHER SERVICE WAKEFIELD VA
100 AM EDT FRI MAY 06 2016

Note: "fair" indicates few or no clouds below 12,000 feet with no
significant weather and/or obstructions to visibility. * = Denotes
station may not report precipitation (e.g., rain,snow,etc.),
thunder or fog.

VAZ042-051-052>054-056-060600-
NORTHERN VIRGINIA

CITY           SKY/WX    TMP DP  RH WIND       PRES   REMARKS
WASH NATIONAL  CLOUDY    54  50  86 N9        29.68R
DULLES         CLOUDY    52  49  89 NW9       29.68S
FORT BELVOIR   CLOUDY    54  50  87 NW5       29.67S
QUANTICO       LGT RAIN  54  50  86 N9        29.68S
FREDERICKSBRG* DRIZZLE   52  52 100 N3        29.67S
STAFFORD*      DRIZZLE   51  49  93 N7        29.71S
WARRENTON      CLOUDY    52  47  83 N6        29.68S
CULPEPER*      HVY RAIN  52  51  97 N5        29.69F
MANASSAS*      MOCLDY    52  52 100 N6        29.68S
LEESBURG*      CLOUDY    52  52 100 N8        29.69S
WINCHESTER     RAIN      50  50 100 CALM      29.70F
FRONT ROYAL*   CLOUDY    50  50 100 CALM      29.70S
LURAY*         RAIN      50  50 100 N5        29.70S
$$

VAZ048-049-060>072-079>083-060600-
CENTRAL AND SOUTH CENTRAL VIRGINIA

CITY           SKY/WX    TMP DP  RH WIND       PRES   REMARKS
RICHMOND       RAIN      51  50  96 N7        29.65S FOG
CHESTERFIELD*  CLOUDY    52  39  62 N3        29.67S
PETERSBURG*    LGT RAIN  52  52 100 N5        29.66S
HANOVER        RAIN      51  49  92 VRB3      29.67S FOG
TAPPAHANNOCK*  RAIN      52  52 100 N3        29.66S
QUINTON*       CLOUDY    50  50  99 N7        29.65S
CHARLOTTSVILLE LGT RAIN  52  49  89 N6        29.68S
GORDONSVILLE*  CLOUDY    51  50  97 N7        29.68S
ORANGE*        LGT RAIN  52  52 100 NE5       29.70S
LOUISA*        RAIN      55  54  94 N7        29.66S
BUMPASS*       CLOUDY    51  50  98 NE5       29.67S
FARMVILLE*     RAIN      52  52 100 N3        29.66S
CREWE*         CLOUDY    50  50 100 NW3       29.66S
FORT PICKETT*  NOT AVBL
CHASE CITY*    CLOUDY    50  49  94 CALM      29.67S
CLARKSVILLE*   CLOUDY    50  50 100 CALM      29.66S
SOUTH HILL*    CLOUDY    49  49  99 N5        29.72R
LAWRENCEVILLE* CLOUDY    50  50 100 CALM      29.65S
EMPORIA*       RAIN      50  50 100 CALM      29.67R
$$

VAZ088>098-060600-
SOUTHEAST VIRGINIA

CITY           SKY/WX    TMP DP  RH WIND       PRES   REMARKS
NORFOLK        LGT RAIN  53  48  83 N14       29.62S
VIRGINIA BEACH LGT RAIN  54  48  80 NE15      29.61S
NORFOLK NAVAL  LGT RAIN  53  49  86 NE9       29.64S
WEST POINT*    CLOUDY    51  50  97 CALM      29.66S
SALUDA*        CLOUDY    51  51  98 N6        29.64S
NEWPORT NEWS   LGT RAIN  52  51  97 NW6       29.64S FOG
LANGLEY AFB    LGT RAIN  53  49  88 NE9       29.62F
FORT EUSTIS    CLOUDY    52  52  99 N5        29.62S
WILLIAMSBURG*  CLOUDY    52  52 100 N3        29.65S
HR EXEC AP*    CLOUDY    54  48  82 NE5       29.66S
FRANKLIN*      CLOUDY    51  49  92 NE5       29.65R
US460-WAKEFLD  RAIN      51  50  96 CALM      29.65R FOG
$$

VAZ020-022-025-037-045-060600-
WEST CENTRAL AND SOUTHWEST VIRGINIA

CITY           SKY/WX    TMP DP  RH WIND       PRES   REMARKS
STAUNTON*      CLOUDY    53  51  94 N5        29.71S
WAYNESBORO*    CLOUDY    50  48  95 N7        29.70R
HOT SPRINGS VA LGT RAIN  42  42 100 NW9       29.69S VSB 1/4
LYNCHBURG      CLOUDY    51  50  96 SE3       29.69S
DANVILLE       LGT RAIN  49  48  97 NW6       29.69S
SOUTH BOSTON*  CLOUDY    51  50  95 CALM      29.68R
MARTINSVILLE   CLOUDY    45  45 100 CALM      29.72S
ROANOKE        CLOUDY    51  44  77 CALM      29.72S
BLACKSBURG     DRIZZLE   46  44  94 CALM      29.75S
DUBLIN*        CLOUDY    48  46  90 NW7       29.75S
MARION*        DRIZZLE   44  42  95 SW10      29.79S
HILLSVILLE*    LGT RAIN  42  42  98 W6        29.73R
RICHLANDS*     DRIZZLE   44  34  68 NW7       29.79S
WISE*          CLOUDY    45  45 100 W9        29.84R
ABINGDON*      DRIZZLE   47  46  97 W5        29.82R
$$

MDZ021>025-VAZ099-100-060600-
SOUTHERN MARYLAND AND THE DELMARVA PENINSULA

CITY           SKY/WX    TMP DP  RH WIND       PRES   REMARKS
PATUXENT RIVER CLOUDY    53  48  83 NE7       29.65S
BAY BRIDGE APT NOT AVBL
LEONARDTOWN    CLOUDY    50  48  93 CALM      29.66F
DOVER          CLOUDY    52  51  95 NE9       29.65S
GEORGETOWN     CLOUDY    50  49  96 NE9       29.66S FOG
EASTON         CLOUDY   N/A N/A N/A CALM      29.70R
CAMBRIDGE        N/A     50  48  93 CALM      29.66R
SALISBURY      LGT RAIN  50  49  96 NE8       29.64F FOG
OCEAN CITY     CLOUDY    50  47  89 NE13G21   29.64S
WALLOPS ISLAND LGT RAIN  50  48  93 N12       29.64S FOG
ACCOMACK*      CLOUDY   N/A N/A N/A NE7       29.64S
$$

NCZ012>017-030>032-060600-
NORTH CENTRAL AND EASTERN NORTH CAROLINA

CITY           SKY/WX    TMP DP  RH WIND       PRES   REMARKS
ROANOKE RAPIDS RAIN      50  50 100 CALM      29.66R
RALEIGH        LGT RAIN  49  48  97 CALM      29.67S FOG
ELIZABETH CITY CLOUDY    51  48  89 CALM      29.65R
AHOSKIE*       DRIZZLE   51  50  97 CALM      29.66S
EDENTON*       CLOUDY    53  53 100 CALM      29.67S
CURRITUCK*     CLOUDY    51  51  98 NE13      29.63F
KILL DEVIL HLS CLOUDY    50  49  97 N6        29.61R
MANTEO         CLOUDY    51  49  95 NE13      29.63R
CAPE HATTERAS  CLOUDY    54  50  86 VRB3      29.65R
TARBORO*       HVY RAIN  53  51  95 NE5       29.67R
GOLDSBORO      NOT AVBL
WASHINGTON     CLOUDY    52  49  91 E5        29.65S
GREENVILLE     LGT RAIN  52  52 100 E6        29.68S
NEW BERN       RAIN      54  52  93 S3        29.67S
WILMINGTON     CLEAR     52  46  80 NW7       29.69F
$$

VAZ048-060600-
ELSEWHERE

CITY           SKY/WX    TMP DP  RH WIND       PRES   REMARKS
HARRISBURG PA  CLOUDY    54  47  77 E3        29.68S
BALTIMORE      CLOUDY    53  50  89 N5        29.66R
ANNAPOLIS      CLOUDY    53  52  96 CALM      29.66R
ANDREWS AFB    CLOUDY    52  50  93 N6        29.66R
PHILADELPHIA   CLOUDY    56  45  66 NE9       29.67S
HENDERSON NC   RAIN      50  50 100 CALM      29.67R
GREENSBORO     LGT RAIN  46  46 100 W5        29.70S
ROCKY MOUNT    LGT RAIN  52  51  97 NE7       29.65S FOG
$$

VAZ100-060600-
MARINE

STATION/POSITION TIME  TEMP    WIND        PRES    WAVE   SWELL
                       AIR SEA DIR/SP/G            HT/PER HT/PER
                 (UTC) (F)     (DEG/KT/KT) (MB)    (FT/S) (FT/S)
BRANDYWINE LGT   0400   51      80/ 10/ 11 1004.3R
CAPE MAY NJ      0400   50 56   80/  5/  9 1004.3R
LEWES DE         0400   51 55   60/ 13/ 16 1004.2R
15NM E FENWICK I 0450   49 51              1002.8F   8/ 8
OCEAN-CITY-INLET 0400   50 54   60/  9/ 19 1002.9F
WACHAPREAGUE VA  0400   49 56   10/  5/  9 1003.0F
THOMAS POINT MD  0500   54 57  310/  6/  7 1005.7R
GOOSES REEF MD   0500   55 58   60/  8/ 10 1005.4R   1
COVE POINT MD    0400   53      50/  7/  9 1004.6S
SOLOMONS ISLAND  0400   53 60  350/  4/  4   N/A
BISHOPS HEAD MD  0400   53 58   30/  7/ 10 1003.4R
PINEY POINT MD   0400           20/  4/  5   N/A
POTOMAC MD       0500   54 59   30/  8/ 12 1002.8F   1
CAMBRIDGE MD     0400   53 60   30/  5/  6 1003.6R
LEWISETTA VA     0400   54 61   60/  5/  6 1003.8R
RAPPAHANNOCK LGT 0400           20/ 18/ 19 1003.7F
STINGRAY PT      0500   54 61   40/ 14/ 16 1003.5F   2/ 3
YORK RVR RNG VA  0400   54      40/ 12/ 15 1002.7S
YORKTOWN VA      0400   53 62   30/  5/  7 1003.2F
JAMESTOWN VA     0500   51 66   40/  2/  4   N/A
DOMINION TERM VA 0400   53      50/  3/ 10 1003.4F
KIPTOPEKE VA     0400      60   40/  9/ 13   N/A
CHES BAY BRIDGE  0400   52 58   10/ 15/ 17 1002.6F
CAPE HENRY VA    0400   51      40/ 21/ 26   N/A
CHESAPEAKE LGHT  0400   50      30/ 27/ 29 1002.5F
WILLOUBY STN VA  0400   53      50/ 15/ 18 1004.2F
CAPE HENRY BUOY  0412      55                N/A     6/ 8
CAPE CHARLES BUO 0426      56                N/A     6/ 8   3/ 8
OFFSHORE WE BUOY 0421      54                N/A     8/ 8   5/ 8
64NM E OF VA BCH 0450   50 51  350/ 17/ 21 1001.4R   8/ 8   3/ 8
DUCK PIER NC     0400   51 61   20/ 18/ 22 1001.9F
44100 DUCK FRF   0424      55                N/A     7/ 8
44056 DUCK FRF   0441      59                N/A     6/ 7
OREGON INLET NC  0400   51 61  360/ 11/ 17 1002.4R
HATTERAS NC      0400   55 67   20/  9/ 12 1002.9R
DIAMOND SHLS NC  0450   55 76  350/  8/ 10 1004.0R   4/ 8   3/ 8
CAPE LOOKOUT NC  0500   55     360/  6/  8 1003.9F
$$



USA.gov is the U.S. government's official web portal to all federal, state and local government web resources and services.